Location: Little Baddow
(51.7333°N, 0.5667°E)
Time: 12:19:00
(UTC+00:00)

SWARM C - Pass Details

Date: 08 November 2025
Orbit: 426 x 429 km, 87.3° (Epoch: 10 December)

Event Time Altitude Azimuth Distance (km) Brightness Sun altitude
Rises 06:11:43 0° 187° (S) 2,404 8.4 -8.5°
Reaches altitude 10° 06:13:46 10° 191° (S) 1,542 7.4 -8.1°
Maximum altitude 06:17:05 66° 274° (W) 481 4.5 -7.7°
Drops below altitude 10° 06:20:26 10° 358° (N) 1,555 7.1 -7.2°
Sets 06:22:30 0° 1° (N) 2,428 8.1 -6.9°
